�������l�o���
Date,Time,MP-1(��Sv/h),MP-2(��Sv/h),MP-3(��Sv/h),MP-4(��Sv/h),MP-5(��Sv/h),MP-6(��Sv/h),MP-7(��Sv/h),MP-8(��Sv/h),����,����(m/s),���J
2019/04/26,00:00,0.762,1.110,0.775,1.434,1.042,0.437,0.775,0.732,�k�k��,5.4,��
2019/04/26,00:10,0.761,1.109,0.774,1.434,1.043,0.438,0.774,0.734,�k�k��,6.4,�L
2019/04/26,00:20,0.763,1.112,0.777,1.434,1.042,0.438,0.774,0.734,�k�k��,6.6,��
2019/04/26,00:30,0.764,1.111,0.776,1.434,1.042,0.439,0.775,0.732,�k�k��,5.2,��
2019/04/26,00:40,0.763,1.110,0.776,1.431,1.042,0.437,0.775,0.734,�k�k��,5.5,��
2019/04/26,00:50,0.764,1.109,0.773,1.431,1.045,0.438,0.776,0.734,�k�k��,6.6,�L
2019/04/26,01:00,0.763,1.112,0.776,1.431,1.042,0.437,0.776,0.734,�k,7.8,�L
2019/04/26,01:10,0.762,1.110,0.778,1.434,1.042,0.438,0.774,0.732,�k,7.0,�L
2019/04/26,01:20,0.762,1.111,0.776,1.435,1.042,0.439,0.775,0.733,�k�k��,7.6,�L
2019/04/26,01:30,0.762,1.107,0.777,1.434,1.041,0.440,0.775,0.733,�k,7.2,�L
2019/04/26,01:40,0.763,1.103,0.776,1.431,1.041,0.440,0.773,0.734,�k,7.6,�L
2019/04/26,01:50,0.760,1.099,0.777,1.430,1.038,0.442,0.774,0.733,�k,6.1,�L
2019/04/26,02:00,0.762,1.100,0.774,1.431,1.039,0.441,0.773,0.734,�k,6.1,�L
2019/04/26,02:10,0.762,1.097,0.774,1.430,1.037,0.442,0.773,0.733,�k,5.2,�L
2019/04/26,02:20,0.759,1.098,0.773,1.428,1.033,0.441,0.773,0.732,�k,8.8,�L
2019/04/26,02:30,0.758,1.097,0.772,1.425,1.037,0.441,0.772,0.731,�k,9.8,�L
2019/04/26,02:40,0.759,1.092,0.771,1.427,1.031,0.439,0.770,0.731,�k,10.7,�L
2019/04/26,02:50,0.756,1.088,0.770,1.425,1.030,0.441,0.770,0.729,�k,9.2,�L
2019/04/26,03:00,0.756,1.085,0.769,1.418,1.026,0.441,0.770,0.729,�k,8.8,�L
2019/04/26,03:10,0.755,1.085,0.766,1.415,1.023,0.440,0.767,0.730,�k,7.3,�L
2019/04/26,03:20,0.755,1.082,0.766,1.410,1.020,0.441,0.766,0.729,�k,7.8,�L
2019/04/26,03:30,0.754,1.074,0.764,1.400,1.017,0.441,0.766,0.727,�k,9.0,�L
2019/04/26,03:40,0.751,1.071,0.763,1.395,1.014,0.441,0.766,0.726,�k,10.2,�L
2019/04/26,03:50,0.748,1.071,0.763,1.391,1.010,0.438,0.766,0.727,�k,10.2,�L
2019/04/26,04:00,0.747,1.071,0.761,1.390,1.013,0.439,0.765,0.726,�k,9.1,�L
2019/04/26,04:10,0.748,1.073,0.761,1.387,1.012,0.438,0.764,0.727,�k,9.0,�L
2019/04/26,04:20,0.749,1.071,0.759,1.389,1.010,0.436,0.765,0.724,�k,9.4,�L
2019/04/26,04:30,0.747,1.072,0.759,1.385,1.011,0.435,0.765,0.725,�k,8.7,�L
2019/04/26,04:40,0.746,1.071,0.758,1.385,1.008,0.434,0.764,0.725,�k,10.2,�L
2019/04/26,04:50,0.746,1.072,0.757,1.385,1.007,0.434,0.763,0.724,�k,9.8,�L
2019/04/26,05:00,0.744,1.071,0.755,1.389,1.005,0.436,0.763,0.725,�k,9.1,�L
2019/04/26,05:10,0.744,1.068,0.753,1.386,1.005,0.435,0.764,0.724,�k,9.5,�L
2019/04/26,05:20,0.743,1.068,0.755,1.385,1.006,0.434,0.762,0.724,�k,9.8,�L
2019/04/26,05:30,0.744,1.067,0.753,1.384,1.006,0.434,0.762,0.725,�k,9.0,�L
2019/04/26,05:40,0.743,1.067,0.753,1.384,1.005,0.435,0.765,0.723,�k,8.5,�L
2019/04/26,05:50,0.741,1.064,0.753,1.378,1.003,0.433,0.761,0.722,�k,9.5,�L
2019/04/26,06:00,0.740,1.064,0.750,1.375,1.000,0.434,0.762,0.722,�k,9.9,�L
2019/04/26,06:10,0.741,1.059,0.751,1.374,1.001,0.434,0.760,0.723,�k,9.0,�L
2019/04/26,06:20,0.738,1.060,0.750,1.374,0.998,0.434,0.760,0.722,�k,8.5,�L
2019/04/26,06:30,0.738,1.055,0.748,1.369,0.996,0.433,0.758,0.721,�k,9.7,�L
2019/04/26,06:40,0.738,1.057,0.750,1.370,0.997,0.431,0.758,0.719,�k,7.1,�L
2019/04/26,06:50,0.734,1.051,0.744,1.362,0.989,0.430,0.756,0.719,�k�k��,7.6,�L
2019/04/26,07:00,0.736,1.051,0.742,1.361,0.989,0.428,0.757,0.718,�k,6.4,�L
2019/04/26,07:10,0.739,1.052,0.746,1.364,0.991,0.430,0.755,0.720,�k,9.1,�L
2019/04/26,07:20,0.737,1.052,0.743,1.362,0.991,0.431,0.758,0.718,�k,8.6,�L
2019/04/26,07:30,0.737,1.053,0.745,1.362,0.992,0.429,0.756,0.718,�k,7.3,�L
2019/04/26,07:40,0.738,1.056,0.743,1.365,0.990,0.432,0.758,0.721,�k,9.3,�L
2019/04/26,07:50,0.739,1.056,0.745,1.365,0.994,0.432,0.758,0.720,�k,9.7,�L
2019/04/26,08:00,0.739,1.058,0.744,1.365,0.995,0.431,0.758,0.720,�k,9.4,�L
2019/04/26,08:10,0.737,1.053,0.745,1.364,0.991,0.431,0.756,0.720,�k�k��,9.5,�L
2019/04/26,08:20,0.737,1.054,0.743,1.365,0.990,0.429,0.756,0.719,�k�k��,9.7,�L
2019/04/26,08:30,0.735,1.051,0.741,1.357,0.985,0.429,0.756,0.719,�k�k��,5.5,�L
2019/04/26,08:40,0.732,1.045,0.739,1.352,0.981,0.429,0.755,0.718,�k,9.7,�L
2019/04/26,08:50,0.734,1.047,0.740,1.355,0.984,0.430,0.755,0.718,�k,8.3,�L
2019/04/26,09:00,0.733,1.051,0.740,1.356,0.986,0.429,0.755,0.717,�k,9.3,�L
2019/04/26,09:10,0.733,1.049,0.741,1.358,0.983,0.429,0.754,0.717,�k,8.6,�L
2019/04/26,09:20,0.733,1.049,0.739,1.352,0.986,0.431,0.756,0.717,�k,9.0,�L
2019/04/26,09:30,0.733,1.045,0.738,1.354,0.984,0.430,0.754,0.717,�k,9.2,�L
2019/04/26,09:40,0.734,1.050,0.740,1.355,0.986,0.429,0.754,0.719,�k,9.0,�L
2019/04/26,09:50,0.736,1.049,0.739,1.356,0.986,0.429,0.754,0.719,�k,10.6,�L
2019/04/26,10:00,0.733,1.051,0.739,1.357,0.985,0.428,0.756,0.717,�k,11.4,�L
2019/04/26,10:10,0.736,1.052,0.740,1.356,0.984,0.428,0.754,0.717,�k,10.3,�L
2019/04/26,10:20,0.736,1.052,0.738,1.357,0.986,0.430,0.756,0.718,�k,9.7,�L
2019/04/26,10:30,0.732,1.052,0.738,1.361,0.987,0.428,0.758,0.719,�k,9.9,�L
2019/04/26,10:40,0.735,1.050,0.738,1.361,0.987,0.427,0.756,0.719,�k,9.2,�L
2019/04/26,10:50,0.734,1.052,0.741,1.358,0.984,0.427,0.756,0.718,�k,9.1,�L
2019/04/26,11:00,0.736,1.055,0.738,1.360,0.988,0.426,0.757,0.719,�k,9.3,�L
2019/04/26,11:10,0.735,1.055,0.742,1.357,0.985,0.426,0.756,0.719,�k,9.3,�L
2019/04/26,11:20,0.736,1.055,0.739,1.361,0.988,0.426,0.757,0.719,�k,8.0,�L
2019/04/26,11:30,0.734,1.054,0.739,1.361,0.987,0.425,0.756,0.718,�k,8.9,�L
2019/04/26,11:40,0.732,1.057,0.739,1.364,0.987,0.426,0.756,0.717,�k,9.0,�L
2019/04/26,11:50,0.735,1.054,0.742,1.363,0.990,0.426,0.755,0.719,�k�k��,8.8,�L
2019/04/26,12:00,0.735,1.057,0.738,1.363,0.988,0.427,0.756,0.720,�k,8.8,�L
2019/04/26,12:10,0.737,1.056,0.740,1.364,0.988,0.427,0.755,0.722,�k,9.8,�L
2019/04/26,12:20,0.737,1.055,0.741,1.363,0.988,0.428,0.755,0.720,�k,9.1,�L
2019/04/26,12:30,0.737,1.057,0.740,1.365,0.988,0.427,0.758,0.719,�k,9.5,�L
2019/04/26,12:40,0.738,1.056,0.742,1.363,0.990,0.427,0.756,0.719,�k,10.1,�L
2019/04/26,12:50,0.735,1.057,0.742,1.365,0.988,0.427,0.758,0.720,�k,11.3,�L
2019/04/26,13:00,0.735,1.055,0.741,1.363,0.988,0.427,0.756,0.719,�k,10.6,�L
2019/04/26,13:10,0.735,1.057,0.740,1.363,0.989,0.426,0.756,0.719,�k,9.3,�L
2019/04/26,13:20,0.736,1.056,0.740,1.365,0.990,0.429,0.756,0.719,�k,9.0,�L
2019/04/26,13:30,0.734,1.058,0.742,1.363,0.988,0.429,0.756,0.721,�k,8.2,�L
2019/04/26,13:40,0.736,1.058,0.742,1.366,0.989,0.428,0.757,0.721,�k,10.0,�L
2019/04/26,13:50,0.735,1.057,0.742,1.362,0.989,0.427,0.757,0.719,�k�k��,9.5,�L
2019/04/26,14:00,0.735,1.052,0.739,1.362,0.984,0.427,0.756,0.718,�k�k��,5.7,�L
2019/04/26,14:10,0.733,1.045,0.739,1.353,0.979,0.429,0.754,0.717,�k,8.6,�L
2019/04/26,14:20,0.732,1.047,0.737,1.350,0.979,0.429,0.751,0.716,�k,9.6,�L
2019/04/26,14:30,0.733,1.048,0.739,1.350,0.982,0.428,0.755,0.718,�k�k��,7.6,�L
2019/04/26,14:40,0.731,1.047,0.738,1.354,0.982,0.429,0.755,0.719,�k,9.2,�L
2019/04/26,14:50,0.733,1.049,0.737,1.352,0.982,0.427,0.754,0.720,�k,8.2,�L
2019/04/26,15:00,0.732,1.051,0.740,1.353,0.982,0.428,0.753,0.718,�k,8.9,�L
2019/04/26,15:10,0.733,1.051,0.739,1.353,0.983,0.429,0.756,0.718,�k,8.1,��
2019/04/26,15:20,0.732,1.054,0.738,1.354,0.981,0.427,0.755,0.719,�k,9.1,��
2019/04/26,15:30,0.735,1.051,0.738,1.358,0.983,0.428,0.755,0.720,�k,8.6,�L
2019/04/26,15:40,0.732,1.051,0.738,1.355,0.983,0.427,0.755,0.718,�k�k��,10.5,��
2019/04/26,15:50,0.734,1.052,0.739,1.356,0.984,0.426,0.754,0.717,�k,8.2,��
2019/04/26,16:00,0.732,1.054,0.740,1.354,0.985,0.426,0.754,0.719,�k,7.2,��
2019/04/26,16:10,0.732,1.054,0.738,1.354,0.985,0.427,0.755,0.718,�k,8.5,��
2019/04/26,16:20,0.732,1.054,0.738,1.358,0.986,0.427,0.754,0.718,�k,8.6,��
2019/04/26,16:30,0.733,1.057,0.738,1.359,0.985,0.424,0.753,0.719,�k,8.1,�L
2019/04/26,16:40,0.731,1.055,0.738,1.359,0.984,0.426,0.755,0.718,�k�k��,7.8,�L
2019/04/26,16:50,0.733,1.055,0.739,1.360,0.986,0.426,0.755,0.719,�k,7.3,��
2019/04/26,17:00,0.735,1.056,0.738,1.355,0.985,0.426,0.754,0.720,�k,9.1,��
2019/04/26,17:10,0.734,1.055,0.740,1.362,0.986,0.425,0.755,0.720,�k,7.9,�L
2019/04/26,17:20,0.736,1.057,0.739,1.361,0.985,0.427,0.757,0.719,�k,8.1,�L
2019/04/26,17:30,0.733,1.057,0.738,1.357,0.985,0.425,0.755,0.720,�k�k��,7.9,��
2019/04/26,17:40,0.736,1.058,0.740,1.359,0.986,0.427,0.757,0.720,�k,7.8,��
2019/04/26,17:50,0.739,1.056,0.740,1.360,0.986,0.426,0.756,0.719,�k,8.4,��
2019/04/26,18:00,0.733,1.063,0.739,1.360,0.987,0.426,0.756,0.719,�k,7.4,��
2019/04/26,18:10,0.735,1.060,0.740,1.360,0.987,0.426,0.757,0.719,�k�k��,7.1,��
2019/04/26,18:20,0.735,1.058,0.741,1.360,0.987,0.427,0.756,0.720,�k,7.4,��
2019/04/26,18:30,0.736,1.057,0.740,1.361,0.988,0.426,0.756,0.720,�k�k��,6.8,�L
2019/04/26,18:40,0.735,1.060,0.740,1.358,0.985,0.426,0.756,0.720,�k,7.6,�L
2019/04/26,18:50,0.734,1.059,0.739,1.362,0.987,0.425,0.756,0.721,�k�k��,7.3,�L
2019/04/26,19:00,0.734,1.059,0.739,1.361,0.988,0.425,0.758,0.719,�k�k��,7.9,��
2019/04/26,19:10,0.734,1.059,0.740,1.362,0.988,0.426,0.757,0.717,�k,7.1,��
2019/04/26,19:20,0.735,1.059,0.740,1.363,0.988,0.426,0.758,0.720,�k�k��,6.9,�L
2019/04/26,19:30,0.735,1.059,0.740,1.363,0.987,0.426,0.758,0.721,�k,7.2,�L
2019/04/26,19:40,0.736,1.060,0.741,1.362,0.988,0.426,0.759,0.719,�k�k��,6.7,��
2019/04/26,19:50,0.735,1.060,0.741,1.361,0.988,0.426,0.757,0.722,�k,6.7,�L
2019/04/26,20:00,0.734,1.062,0.742,1.363,0.988,0.425,0.759,0.721,�k,6.4,�L
2019/04/26,20:10,0.733,1.061,0.738,1.362,0.988,0.426,0.757,0.719,�k,6.4,�L
2019/04/26,20:20,0.735,1.061,0.740,1.362,0.988,0.427,0.758,0.720,�k�k��,6.7,�L
2019/04/26,20:30,0.736,1.062,0.741,1.361,0.989,0.428,0.759,0.720,�k�k��,6.7,�L
2019/04/26,20:40,0.736,1.064,0.742,1.364,0.989,0.427,0.756,0.720,�k�k��,7.1,��
2019/04/26,20:50,0.737,1.062,0.741,1.361,0.986,0.427,0.759,0.721,�k�k��,7.5,��
2019/04/26,21:00,0.736,1.060,0.740,1.363,0.990,0.426,0.756,0.722,�k�k��,7.6,��
2019/04/26,21:10,0.735,1.062,0.742,1.363,0.989,0.426,0.757,0.722,�k�k��,6.3,��
2019/04/26,21:20,0.735,1.063,0.743,1.364,0.990,0.427,0.758,0.719,�k,5.4,��
2019/04/26,21:30,0.737,1.063,0.740,1.364,0.990,0.426,0.759,0.721,�k�k��,6.9,��
2019/04/26,21:40,0.734,1.063,0.739,1.363,0.988,0.426,0.758,0.721,�k�k��,7.0,��
2019/04/26,21:50,0.734,1.065,0.741,1.363,0.989,0.428,0.759,0.721,�k�k��,8.0,��
2019/04/26,22:00,0.736,1.061,0.743,1.362,0.990,0.427,0.757,0.721,�k�k��,7.2,��
2019/04/26,22:10,0.737,1.062,0.741,1.363,0.990,0.426,0.756,0.722,�k�k��,6.4,��
2019/04/26,22:20,0.737,1.060,0.741,1.366,0.992,0.427,0.758,0.720,�k�k��,5.9,��
2019/04/26,22:30,0.737,1.063,0.743,1.366,0.993,0.426,0.757,0.720,�k�k��,5.9,�L
2019/04/26,22:40,0.738,1.063,0.742,1.364,0.992,0.427,0.758,0.721,�k�k��,5.8,��
2019/04/26,22:50,0.737,1.065,0.740,1.364,0.991,0.425,0.758,0.722,�k�k��,5.6,��
2019/04/26,23:00,0.736,1.063,0.743,1.362,0.991,0.427,0.758,0.721,�k�k��,5.2,�L
2019/04/26,23:10,0.735,1.064,0.741,1.363,0.990,0.427,0.759,0.722,�k�k��,5.2,�L
2019/04/26,23:20,0.738,1.064,0.743,1.367,0.992,0.428,0.760,0.722,�k�k��,4.9,�L
2019/04/26,23:30,0.736,1.062,0.741,1.366,0.991,0.426,0.759,0.722,�k�k��,5.8,�L
2019/04/26,23:40,0.735,1.063,0.742,1.364,0.990,0.427,0.761,0.720,�k�k��,6.0,�L
2019/04/26,23:50,0.738,1.064,0.743,1.364,0.992,0.428,0.759,0.722,�k�k��,5.9,�L
